[[{"header":{"parameterUnit":"m.s-1","parameterCategory":1,"la1":30.2991,"la2":30.254,"lo1":-89.0895,"lo2":-89.0444,"dy":0.0017,"dx":0.0017,"nx":28,"ny":28,"refTime":"2025-08-28T21:00:00:Z","depth":0,"parameterNumber":2,"parameterNumberName":"U-component_of_WINDS"},"data":[0,0,0,0,0,0,0,0,0,0,0,0,0,0,0,0,0,0,0,0,0,0,0,0,0,0,0,0,0,0,0,0,0,0,0,0,0,0,0,0,0,0,0,0,0,0,0,0,0,0,0,0,0,0,0,0,0,0,-6.1232,-6.1233,0,-6.1342,-6.1343,-6.1344,-6.1283,-6.128,-6.1277,-6.1275,-6.1379,-6.1385,-6.139,0,0,0,0,0,0,0,0,0,0,0,0,0,-6.0961,-6.0967,-6.1232,-6.1233,-6.1235,-6.1341,-6.1343,-6.1344,-6.1284,-6.128,-6.1277,-6.1273,-6.1377,-6.1384,-6.1391,0,0,0,0,0,0,0,0,0,0,0,0,0,-6.1076,-6.0969,-6.1232,-6.1218,-6.1217,-6.1341,-6.1343,-6.1345,-6.1285,-6.128,-6.1276,-6.1272,-6.1375,-6.1383,-6.1391,-6.1533,0,0,-6.1417,-6.1421,0,0,0,0,0,0,0,0,-6.1069,-6.1086,-6.1218,-6.1219,-6.1219,-6.1294,-6.1286,-6.1407,-6.1286,-6.1259,-6.1275,-6.1269,-6.1354,-6.1364,-6.1394,-6.1538,-6.1542,-6.1418,-6.1423,-6.1426,-6.1429,0,0,0,0,0,0,0,-6.1061,-6.108,-6.1275,-6.122,-6.1221,-6.1203,-6.1214,-6.1308,-6.133,-6.1261,-6.1257,-6.1271,-6.1353,-6.1386,-6.1396,-6.1544,-6.1417,-6.1425,-6.143,-6.1433,-6.1805,-6.181,0,0,0,0,0,0,-6.1055,-6.1074,-6.1271,-6.1278,-6.1132,-6.1211,-6.1224,-6.1275,-6.1329,-6.1333,-6.1275,-6.1268,-6.1374,-6.1386,-6.1399,-6.1566,-6.1426,-6.1434,-6.1439,-6.18,-6.1806,-6.1811,0,0,0,0,0,0,-6.105,-6.1074,-6.1267,-6.1175,-6.1199,-6.1221,-6.1278,-6.1279,-6.1312,-6.134,-6.1342,-6.1305,-6.1371,-6.1388,-6.15,-6.1569,-6.1438,-6.1445,-6.1794,-6.1802,-6.1809,-6.1902,0,0,0,0,0,0,-6.1042,-6.1072,-6.1128,-6.1177,-6.1204,-6.1369,-6.1282,-6.1284,-6.1327,-6.1319,-6.1368,-6.1372,-6.1369,-6.1488,-6.1508,-6.1578,-6.1452,-6.1788,-6.1798,-6.1806,-6.1892,-6.1911,-6.1927,0,0,0,0,0,-6.1033,-6.1149,-6.1131,-6.1156,-6.1275,-6.1373,-6.1388,-6.1384,-6.1333,-6.1388,-6.1405,-6.1371,-6.1559,-6.15,-6.1522,-6.1595,-6.1784,-6.1795,-6.1806,-6.1884,-6.1907,-6.1927,0,0,0,0,0,0,-6.1105,-6.1155,-6.1136,-6.1272,-6.1319,-6.1362,-6.1432,-6.1408,-6.1468,-6.1458,-6.1448,-6.1459,-6.1576,-6.1597,-6.1531,-6.1733,-6.1663,-6.1679,-6.1715,-6.1737,-6.1754,-6.1745,-6.1459,0,0,0,0,0,-6.1138,-6.1216,-6.1254,-6.137,-6.1395,-6.141,-6.1452,-6.1445,-6.1492,-6.151,-6.1536,-6.1581,-6.1649,-6.1695,-6.176,-6.1896,-6.1903,-6.1957,-6.1974,-6.1988,-6.2001,-6.2072,-6.2095,-6.1847,-6.1847,-6.1847,0,0,-6.1204,-6.1241,-6.129,-6.1385,-6.1421,-6.1498,-6.1426,-6.1512,-6.1569,-6.1523,-6.163,-6.1651,-6.1699,-6.1823,-6.1879,-6.1844,-6.2072,-6.2002,-6.2014,-6.2019,-6.2085,-6.2109,-6.213,-6.1855,-6.1853,-6.1852,0,0,-6.1364,-6.1402,-6.1501,-6.1538,-6.1593,-6.1602,-6.1626,-6.1674,-6.1686,-6.1794,-6.176,-6.1826,-6.1946,-6.1981,-6.2015,-6.2187,-6.2156,-6.2209,-6.2298,-6.2367,-6.2387,-6.2404,-6.2462,-6.2484,-6.2222,-6.2222,-6.2223,0,-6.1438,-6.1557,-6.1554,-6.1643,-6.1684,-6.1648,-6.1747,-6.1782,-6.1855,-6.1883,-6.1844,-6.1992,-6.2022,-6.2152,-6.2195,-6.2224,-6.2248,-6.2202,-6.2385,-6.2402,-6.2418,-6.2473,-6.2496,-6.2228,-6.2228,-6.2227,-6.2226,0,-6.1644,-6.1727,-6.18,-6.1874,-6.1923,-6.2017,-6.2024,-6.2075,-6.2063,-6.2075,-6.2184,-6.2219,-6.229,-6.2321,-6.231,-6.2449,-6.2425,-6.2386,-6.2314,-6.2447,-6.2499,-6.2521,-6.2237,-6.2234,-6.2233,-6.2231,0,0,-6.1852,-6.1923,-6.1949,-6.1981,-6.2039,-6.2101,-6.2191,-6.2262,-6.2304,-6.2355,-6.2428,-6.253,-6.2493,-6.2532,-6.2524,-6.2585,-6.2715,-6.2537,-6.2538,-6.2567,-6.2867,-6.2894,-6.2919,-6.2696,-6.27,-6.2704,-6.2862,0,-6.2013,-6.2174,-6.2173,-6.232,-6.2394,-6.2361,-6.2439,-6.2481,-6.2495,-6.2557,-6.2571,-6.2642,-6.259,-6.2613,-6.2672,-6.2687,-6.2775,-6.2676,-6.276,-6.2763,-6.2747,-6.2947,-6.2976,-6.3124,-6.2883,-6.2886,-6.2889,0,-6.2223,-6.2283,-6.2438,-6.2484,-6.2515,-6.2585,-6.2649,-6.2711,-6.2757,-6.2762,-6.2805,-6.2787,-6.2875,-6.2804,-6.2923,-6.2855,-6.289,-6.2902,-6.2908,-6.2913,-6.2832,-6.2955,-6.3171,-6.3192,-6.2921,-6.2918,-6.2916,0,-6.2355,-6.2475,-6.2582,-6.261,-6.2667,-6.2717,-6.2742,-6.2784,-6.2826,-6.2881,-6.2908,-6.2972,-6.3006,-6.3055,-6.3054,-6.3002,-6.3173,-6.3102,-6.3177,-6.3177,-6.3212,-6.3209,-6.3434,-6.324,-6.3239,-6.3239,-6.3238,0,-6.2534,-6.2629,-6.2642,-6.2707,-6.2812,-6.2809,-6.2911,-6.2932,-6.2969,-6.3036,-6.3011,-6.3073,-6.307,-6.3132,-6.3132,-6.3229,-6.3245,-6.3249,-6.3247,-6.325,-6.3249,-6.327,-6.3258,-6.3245,-6.3243,-6.3242,-6.3241,0,-6.2698,-6.2711,-6.2825,-6.287,-6.2883,-6.2958,-6.2994,-6.3055,-6.3067,-6.3151,-6.317,-6.3187,-6.3259,-6.3264,-6.3347,-6.3347,-6.3463,-6.3452,-6.3448,-6.3445,-6.3518,-6.351,-6.3762,-6.3794,-6.3582,-6.3584,-6.3585,0,-6.281,-6.2882,-6.2935,-6.2979,-6.3008,-6.3079,-6.3122,-6.3122,-6.3167,-6.3224,-6.3277,-6.3348,-6.3403,-6.3519,-6.3537,-6.3599,-6.3587,-6.3671,-6.3596,-6.3595,-6.3584,-6.3579,-6.3584,-6.3685,-6.3687,-6.3689,-6.369,0,-6.3006,-6.3008,-6.3073,-6.314,-6.3193,-6.3244,-6.3293,-6.3329,-6.3334,-6.3386,-6.346,-6.3504,-6.3589,-6.3657,-6.3718,-6.374,-6.3715,-6.3715,-6.3734,-6.3736,-6.373,-6.3731,-6.3485,-6.3708,-6.3706,-6.3705,-6.3704,-6.3703,-6.3145,-6.3207,-6.3253,-6.3325,-6.3362,-6.3408,-6.3466,-6.3486,-6.3549,-6.3619,-6.3615,-6.3696,-6.3738,-6.3817,-6.3845,-6.3906,-6.3877,-6.3907,-6.3914,-6.3921,-6.3927,-6.3723,-6.3918,-6.3917,-6.3917,-6.3916,-6.3916,0,-6.3336,-6.3365,-6.3432,-6.3501,-6.3556,-6.3532,-6.3583,-6.3631,-6.3703,-6.3746,-6.3802,-6.3886,-6.3952,-6.3976,-6.4039,-6.4084,-6.4073,-6.41,-6.4095,-6.41,-6.3951,-6.3926,-6.4107,-6.4107,-6.4107,-6.4107,-6.4107,-6.4107,-6.3442,-6.3545,-6.3553,-6.3672,-6.3699,-6.3781,-6.3812,-6.3853,-6.3886,-6.3982,-6.4038,-6.4054,-6.4088,-6.4154,-6.4212,-6.4217,-6.424,-6.4271,-6.427,-6.413,-6.4111,-6.4092,-6.4068,-6.4277,-6.4277,-6.4414,-6.4415,-6.4416]},{"header":{"parameterUnit":"m.s-1","parameterCategory":1,"la1":30.2991,"la2":30.254,"lo1":-89.0895,"lo2":-89.0444,"dy":0.0017,"dx":0.0017,"nx":28,"ny":28,"refTime":"2025-08-28T21:00:00:Z","depth":0,"parameterNumber":3,"parameterNumberName":"V-component_of_WINDS"},"data":[0,0,0,0,0,0,0,0,0,0,0,0,0,0,0,0,0,0,0,0,0,0,0,0,0,0,0,0,0,0,0,0,0,0,0,0,0,0,0,0,0,0,0,0,0,0,0,0,0,0,0,0,0,0,0,0,0,0,1.4764,1.476,0,1.442,1.4416,1.4412,1.424,1.424,1.424,1.424,1.3877,1.3868,1.3858,0,0,0,0,0,0,0,0,0,0,0,0,0,1.5263,1.5255,1.4764,1.476,1.4756,1.4421,1.4416,1.4411,1.424,1.424,1.424,1.424,1.388,1.3869,1.3857,0,0,0,0,0,0,0,0,0,0,0,0,0,1.4995,1.5252,1.4765,1.463,1.4615,1.4422,1.4416,1.441,1.424,1.424,1.424,1.424,1.3884,1.387,1.3855,1.3767,0,0,1.3811,1.3805,0,0,0,0,0,0,0,0,1.5011,1.4977,1.4654,1.4639,1.4621,1.4373,1.4458,1.4194,1.424,1.4382,1.424,1.424,1.4041,1.4014,1.3949,1.375,1.3734,1.381,1.3801,1.3795,1.3791,0,0,0,0,0,0,0,1.503,1.4991,1.4627,1.465,1.463,1.4584,1.4546,1.4407,1.4216,1.437,1.4356,1.4319,1.4032,1.3963,1.3939,1.3729,1.381,1.3798,1.3789,1.3783,1.3439,1.3439,0,0,0,0,0,0,1.5071,1.5008,1.4638,1.4617,1.482,1.4575,1.4532,1.4453,1.4217,1.4181,1.4319,1.4312,1.3988,1.3956,1.3926,1.3806,1.3795,1.3782,1.3773,1.344,1.3439,1.3439,0,0,0,0,0,0,1.5083,1.504,1.4652,1.4809,1.4756,1.4566,1.4478,1.4446,1.4377,1.4179,1.4143,1.4285,1.3987,1.3946,1.3808,1.3791,1.3775,1.3762,1.344,1.344,1.3439,1.3568,0,0,0,0,0,0,1.5098,1.5045,1.5012,1.4809,1.4748,1.4544,1.4477,1.4439,1.4354,1.4341,1.4137,1.4103,1.3984,1.3831,1.3794,1.3771,1.3751,1.3441,1.344,1.3439,1.3564,1.3572,1.3578,0,0,0,0,0,1.5116,1.5059,1.5011,1.4967,1.4703,1.4543,1.4508,1.4375,1.4353,1.4316,1.4189,1.4109,1.38,1.3818,1.3775,1.3748,1.3441,1.344,1.3439,1.3561,1.357,1.3578,0,0,0,0,0,0,1.526,1.503,1.4974,1.485,1.4719,1.4515,1.4464,1.4389,1.4257,1.4251,1.4088,1.4043,1.3921,1.382,1.3845,1.365,1.3613,1.3603,1.372,1.3727,1.3734,1.376,1.3739,0,0,0,0,0,1.5278,1.5171,1.4974,1.4884,1.4821,1.4655,1.458,1.449,1.4345,1.4287,1.4149,1.4009,1.388,1.3798,1.3668,1.3549,1.3501,1.3509,1.3516,1.3523,1.3516,1.3445,1.3446,1.3436,1.3436,1.3436,0,0,1.5312,1.5174,1.5115,1.491,1.4797,1.4687,1.4609,1.4495,1.4411,1.4268,1.4131,1.4026,1.3857,1.373,1.3666,1.3642,1.3509,1.3522,1.3529,1.3517,1.3444,1.3446,1.3447,1.3435,1.3435,1.3435,0,0,1.5319,1.5205,1.5117,1.5007,1.4838,1.4728,1.4708,1.4516,1.4442,1.4303,1.4194,1.4089,1.3871,1.3756,1.3669,1.3636,1.3556,1.3598,1.3633,1.3566,1.3567,1.3567,1.3554,1.3551,1.3592,1.3592,1.3592,0,1.5382,1.5216,1.5081,1.4974,1.4886,1.4757,1.4666,1.4564,1.436,1.4301,1.4278,1.4003,1.388,1.3723,1.3716,1.365,1.3619,1.3619,1.3578,1.3577,1.3575,1.356,1.3556,1.3598,1.3597,1.3597,1.3596,0,1.5301,1.5188,1.5137,1.4948,1.4854,1.4756,1.4604,1.4524,1.4443,1.4336,1.4195,1.4044,1.3882,1.3838,1.3756,1.367,1.366,1.361,1.3569,1.3584,1.3568,1.3561,1.3607,1.3604,1.3603,1.3601,0,0,1.5386,1.5128,1.5111,1.5024,1.483,1.4738,1.4633,1.4479,1.4414,1.4278,1.4184,1.4004,1.3957,1.3859,1.3762,1.3704,1.3687,1.366,1.3654,1.367,1.3582,1.362,1.3616,1.3635,1.3633,1.3632,1.3595,0,1.5365,1.5176,1.5052,1.491,1.4803,1.468,1.4588,1.4458,1.4355,1.4245,1.4129,1.4004,1.3952,1.3892,1.3829,1.3703,1.3667,1.3704,1.3543,1.3539,1.3588,1.3607,1.3647,1.362,1.3588,1.3587,1.3586,0,1.5315,1.5188,1.5037,1.4856,1.4806,1.4727,1.4575,1.4474,1.4323,1.4252,1.4144,1.4047,1.3929,1.3901,1.3734,1.3762,1.3689,1.3617,1.3613,1.3591,1.3563,1.3585,1.3608,1.3604,1.3575,1.3576,1.3577,0,1.5392,1.5182,1.5065,1.4994,1.4781,1.4728,1.4635,1.4485,1.44,1.4267,1.421,1.4064,1.3984,1.3871,1.3737,1.3729,1.3584,1.3544,1.3519,1.3522,1.3492,1.3495,1.3502,1.3448,1.3448,1.3448,1.3448,0,1.538,1.5292,1.5097,1.5024,1.4922,1.478,1.4681,1.4578,1.4446,1.4349,1.4232,1.4143,1.3972,1.3861,1.3754,1.3632,1.3597,1.3534,1.3506,1.3543,1.3551,1.3492,1.3489,1.3447,1.3447,1.3447,1.3448,0,1.5447,1.5313,1.5177,1.4988,1.4938,1.4871,1.4707,1.463,1.4523,1.4402,1.4365,1.4194,1.4058,1.3913,1.3726,1.3655,1.3537,1.3499,1.359,1.3574,1.3556,1.356,1.3524,1.3511,1.3469,1.3469,1.347,0,1.5449,1.5379,1.5184,1.5113,1.5025,1.4911,1.4826,1.4683,1.4598,1.4423,1.4367,1.4223,1.41,1.3888,1.3745,1.3601,1.3558,1.3556,1.3535,1.3575,1.3556,1.3562,1.3554,1.3562,1.3563,1.3564,1.3565,0,1.5464,1.5402,1.5286,1.5146,1.5049,1.4931,1.4808,1.4756,1.4588,1.4498,1.436,1.4266,1.4077,1.3935,1.3775,1.3676,1.3591,1.3573,1.3559,1.3595,1.3651,1.362,1.3606,1.3574,1.3573,1.3572,1.3571,1.3571,1.5497,1.543,1.5283,1.5157,1.5051,1.4939,1.4859,1.4743,1.4627,1.4465,1.4387,1.4249,1.4099,1.3876,1.378,1.3667,1.3642,1.3622,1.3617,1.3614,1.3623,1.3671,1.3637,1.3637,1.3636,1.3636,1.3636,0,1.5506,1.5407,1.5292,1.5127,1.5028,1.4962,1.4823,1.4743,1.4625,1.4494,1.4377,1.4218,1.408,1.3928,1.378,1.3719,1.3677,1.3685,1.3687,1.3665,1.3655,1.3681,1.3722,1.3722,1.3722,1.3722,1.3722,1.3722,1.5499,1.5382,1.5303,1.5131,1.503,1.4898,1.4824,1.472,1.4615,1.4445,1.4331,1.4235,1.4094,1.3935,1.3805,1.3763,1.3714,1.3733,1.368,1.3673,1.3666,1.3659,1.3683,1.3724,1.3724,1.3699,1.3699,1.3699]}]]